EW8792 Morava BG current weather conditions

sailwx.info

Wind from 100 at 3 knots gusting 8

Air temperature 21.1° C
Dewpoint 11.2° C

Last reported at 2018-May-22 06:00 UTC.
Time now 2018-May-22 06:27 UTC

Location: N 43°28' E 025°13'.
View on Google Maps.

See reports from other nearby stations

  
Tides and Currents Weather Stations Pressure Air Temp Water Temp Dewpoint Dewpoint Depression Visibility Wind Speed Wind Dir Waves Ship Positions
date/time (UTC)wind fromknots sea level pressurealtimeterstation pressurevisibilityair tempwater tempwave heightnotes
2018-May-22 06:10 116 3 gusting 6 21.1
2018-May-22 06:05 099 3 gusting 6 21.1
2018-May-22 06:00 100 3 gusting 8 21.1
2018-May-22 05:55 120 3 gusting 8 20.6
2018-May-22 05:50 132 1 gusting 6 21.1
2018-May-22 05:45 114 3 gusting 6 20.6
2018-May-22 05:40 111 2 gusting 6 20.6
2018-May-22 05:35 095 2 gusting 6 20.6
2018-May-22 05:30 102 3 gusting 6 20.6
2018-May-22 05:25 128 1 gusting 3 20.6
2018-May-22 05:20 148 1 gusting 3 20.6
2018-May-22 05:15 149 2 gusting 3 20.6
2018-May-22 05:10 132 1 gusting 6 20.6
2018-May-22 05:05 112 1 gusting 6 20.6
2018-May-22 05:00 113 2 gusting 5 20.6
2018-May-22 04:55 111 1 gusting 5 20.0
2018-May-22 04:50 099 1 gusting 6 20.0
2018-May-22 04:45 112 2 gusting 6 20.0
2018-May-22 04:40 104 2 gusting 6 20.0
2018-May-22 04:35 096 1 gusting 6 20.6
2018-May-22 04:30 112 20.6
2018-May-22 04:25 119 0 gusting 3 20.0
2018-May-22 04:20 134 2 gusting 3 19.4
2018-May-22 04:15 121 1 gusting 4 18.9
2018-May-22 04:10 106 3 gusting 5 18.3
2018-May-22 04:05 117 3 gusting 5 18.3
2018-May-22 04:00 116 1 gusting 5 18.3
2018-May-22 03:55 104 1 gusting 2 18.3
2018-May-22 03:50 108 1 gusting 1 18.3
2018-May-22 03:45 095 0 gusting 1 17.8
2018-May-22 03:40 095 1 gusting 3 16.7
2018-May-22 03:35 093 0 gusting 3 16.1
2018-May-22 03:30 077 15.0
2018-May-22 03:25 044 14.4
2018-May-22 03:20 076 14.4
2018-May-22 03:15 093 0 gusting 1 13.9
2018-May-22 03:10 066 1 gusting 1 13.9
2018-May-22 03:05 326 13.9
2018-May-22 03:00 348 13.9
2018-May-22 02:55 031 13.9
2018-May-22 02:50 061 13.9
2018-May-22 02:45 101 13.9
2018-May-22 02:40 080 0 gusting 1 14.4
2018-May-21 17:30 131 2 gusting 6 21.7
2018-May-21 17:25 122 3 gusting 6 21.7
2018-May-21 17:20 116 3 gusting 6 21.7
2018-May-21 17:15 121 3 gusting 6 21.7
2018-May-21 17:10 109 2 gusting 7 21.7
2018-May-21 17:05 111 3 gusting 7 21.7
2018-May-21 17:00 121 3 gusting 6 21.7
2018-May-21 16:55 126 3 gusting 10 22.2
2018-May-21 16:50 124 5 gusting 10 22.2
2018-May-21 16:45 116 3 gusting 6 22.2
2018-May-21 16:40 097 4 gusting 6 22.2
2018-May-21 16:35 105 4 gusting 7 23.3
2018-May-21 16:30 128 2 gusting 8 23.3
2018-May-21 16:25 149 4 gusting 8 23.3
2018-May-21 16:20 184 3 gusting 10 23.9
2018-May-21 16:15 149 5 gusting 10 23.9
2018-May-21 16:10 139 4 gusting 10 23.9
2018-May-21 16:05 155 3 gusting 10 24.4
2018-May-21 16:00 113 5 gusting 10 24.4
2018-May-21 15:55 091 3 gusting 6 25.0
2018-May-21 15:50 099 4 gusting 6 25.0
2018-May-21 15:45 108 1 gusting 5 25.0
2018-May-21 15:40 108 1 gusting 3 25.0
2018-May-21 15:35 090 1 gusting 3 25.0
2018-May-21 15:30 085 1 gusting 4 25.0
2018-May-21 15:25 107 1 gusting 5 25.0
2018-May-21 15:20 109 1 gusting 5 25.0
2018-May-21 15:15 111 3 gusting 6 25.0
2018-May-21 15:10 114 2 gusting 6 25.0
2018-May-21 15:05 133 2 gusting 6 25.0
2018-May-21 15:00 136 3 gusting 6 25.0
2018-May-21 14:55 140 1 gusting 5 25.0
2018-May-21 14:50 135 2 gusting 5 25.0
2018-May-21 14:45 120 2 gusting 3 25.0
2018-May-21 14:40 110 1 gusting 4 25.0
2018-May-21 14:35 115 2 gusting 4 25.0
2018-May-21 14:30 123 2 gusting 6 25.0
2018-May-21 14:25 128 1 gusting 6 25.0
2018-May-21 14:20 129 1 gusting 6 25.0
2018-May-21 14:15 117 3 gusting 6 25.0
2018-May-21 14:10 120 2 gusting 6 25.0
2018-May-21 14:05 117 1 gusting 6 25.0
2018-May-21 14:00 104 3 gusting 8 25.0
2018-May-21 13:55 107 3 gusting 8 25.0
2018-May-21 13:50 109 6 gusting 8 25.0
2018-May-21 13:45 120 3 gusting 9 25.0
2018-May-21 13:40 120 3 gusting 9 25.0
2018-May-21 13:35 105 5 gusting 12 26.1
2018-May-21 13:30 113 6 gusting 12 26.7
2018-May-21 13:25 125 6 gusting 10 26.1
2018-May-21 13:20 116 6 gusting 12 26.7
2018-May-21 13:15 094 5 gusting 12 26.7
2018-May-21 13:10 096 6 gusting 12 26.7
2018-May-21 13:05 118 5 gusting 10 26.1
2018-May-21 13:00 107 6 gusting 12 27.2
2018-May-21 12:55 098 3 gusting 12 26.7
2018-May-21 12:50 098 5 gusting 12 26.7
2018-May-21 12:45 087 5 gusting 12 26.7
2018-May-21 12:40 090 6 gusting 13 26.7
2018-May-21 12:35 114 6 gusting 13 26.7
2018-May-21 12:30 120 3 gusting 9 27.2
2018-May-21 12:25 101 4 gusting 9 27.2
2018-May-21 12:20 112 4 gusting 9 27.2
2018-May-21 12:15 116 3 gusting 9 27.2
2018-May-21 12:10 100 6 gusting 9 27.2
2018-May-21 12:05 093 3 gusting 13 27.2
2018-May-21 12:00 119 6 gusting 13 26.7
2018-May-21 11:55 125 3 gusting 11 26.1
2018-May-21 11:50 115 6 gusting 13 26.1
2018-May-21 11:45 133 6 gusting 13 26.7
2018-May-21 11:40 133 9 gusting 13 27.2
2018-May-21 11:35 106 2 gusting 9 27.2
2018-May-21 11:30 103 5 gusting 9 27.2
2018-May-21 11:25 122 5 gusting 10 26.7
2018-May-21 11:20 120 6 gusting 10 26.7
2018-May-21 11:15 112 5 gusting 8 26.7
2018-May-21 11:10 106 2 gusting 12 26.7
2018-May-21 11:05 104 4 gusting 12 26.7
2018-May-21 11:00 103 2 gusting 7 26.7
2018-May-21 10:55 111 2 gusting 8 27.2
2018-May-21 10:50 122 2 gusting 8 26.7
2018-May-21 10:45 114 5 gusting 9 26.7
2018-May-21 10:40 096 3 gusting 9 26.1
2018-May-21 10:35 081 5 gusting 9 26.7
2018-May-21 10:30 102 4 gusting 8 26.7
2018-May-21 10:25 113 4 gusting 6 26.7
2018-May-21 10:20 106 3 gusting 8 26.7
2018-May-21 10:15 076 1 gusting 10 26.1
2018-May-21 10:10 045 4 gusting 10 26.1
2018-May-21 10:05 062 3 gusting 6 26.1
2018-May-21 10:00 093 2 gusting 13 26.1
2018-May-21 09:55 098 4 gusting 13 26.1
2018-May-21 09:50 098 2 gusting 9 25.0
2018-May-21 09:45 091 6 gusting 9 25.0
2018-May-21 09:40 100 2 gusting 8 25.0
2018-May-21 09:35 137 3 gusting 12 25.0
2018-May-21 09:30 105 4 gusting 12 25.0
2018-May-21 09:25 100 4 gusting 9 26.1
2018-May-21 09:20 127 2 gusting 7 25.0
2018-May-21 09:15 117 3 gusting 8 25.0
2018-May-21 09:10 119 5 gusting 8 25.0
2018-May-21 09:05 113 2 gusting 8 25.0
2018-May-21 09:00 126 4 gusting 8 25.0
2018-May-21 08:55 121 6 gusting 8 25.0
2018-May-21 08:50 103 3 gusting 8 25.0
2018-May-21 08:45 111 3 gusting 9 24.4
2018-May-21 08:40 116 4 gusting 9 25.0
2018-May-21 08:35 124 4 gusting 7 24.4
2018-May-21 08:30 120 4 gusting 8 24.4
2018-May-21 08:25 112 3 gusting 8 24.4
2018-May-21 08:20 113 3 gusting 7 24.4
2018-May-21 08:15 109 3 gusting 6 23.9
2018-May-21 08:10 092 2 gusting 6 23.9
2018-May-21 08:05 092 3 gusting 6 23.9
2018-May-21 08:00 098 3 gusting 6 24.4
2018-May-21 07:55 109 2 gusting 6 23.9
2018-May-21 07:50 111 3 gusting 6 23.9
2018-May-21 07:45 126 2 gusting 6 23.3
2018-May-21 07:40 117 3 gusting 6 23.9
2018-May-21 07:35 110 3 gusting 6 22.8
2018-May-21 07:30 116 3 gusting 6 22.2
2018-May-21 07:25 087 2 gusting 6 22.2
2018-May-21 07:20 103 2 gusting 6 22.2
2018-May-21 07:15 119 2 gusting 6 22.2
2018-May-21 07:10 105 2 gusting 6 22.2
2018-May-21 07:05 115 3 gusting 6 22.2
2018-May-21 07:00 112 3 gusting 6 21.7
2018-May-21 06:55 113 3 gusting 6 21.7
2018-May-21 06:50 135 3 gusting 6 21.7
2018-May-21 06:45 143 3 gusting 6 21.7
2018-May-21 06:40 125 3 gusting 6 21.1
2018-May-21 06:35 111 3 gusting 6 21.1
2018-May-21 06:30 099 4 gusting 8 21.1
2018-May-21 06:25 087 5 gusting 8 20.6
2018-May-21 06:20 093 6 gusting 8 20.6
2018-May-21 06:15 101 3 gusting 8 20.6
2018-May-21 06:10 096 5 gusting 9 20.6
2018-May-21 06:05 114 4 gusting 9 20.0
2018-May-21 06:00 117 6 gusting 9 20.0
2018-May-21 05:55 112 3 gusting 9 20.0
2018-May-21 05:50 117 6 gusting 9 20.0
2018-May-21 05:45 115 5 gusting 8 20.0
2018-May-21 05:40 112 4 gusting 9 19.4
2018-May-21 05:35 101 3 gusting 11 19.4
2018-May-21 05:30 117 6 gusting 11 19.4
2018-May-21 05:25 125 3 gusting 10 18.9
2018-May-21 05:20 109 3 gusting 10 18.9
2018-May-21 05:15 105 4 gusting 9 18.9
2018-May-21 05:10 097 6 gusting 9 18.9
2018-May-21 05:05 102 5 gusting 6 19.4
2018-May-21 05:00 101 3 gusting 6 19.4
2018-May-21 04:55 107 3 gusting 6 19.4
2018-May-21 04:50 098 2 gusting 5 18.9
2018-May-21 04:45 097 2 gusting 6 18.3
2018-May-21 04:40 112 2 gusting 7 18.3
2018-May-21 04:35 113 3 gusting 7 17.8
2018-May-21 04:30 105 2 gusting 6 18.3
2018-May-21 04:25 098 2 gusting 6 18.3
2018-May-21 04:20 083 1 gusting 3 18.3
2018-May-21 04:15 083 1 gusting 4 17.8
2018-May-21 04:10 098 1 gusting 5 17.2
2018-May-21 04:05 098 1 gusting 5 17.2
2018-May-21 04:00 085 1 gusting 6 16.7
2018-May-21 03:55 096 1 gusting 6 16.7
2018-May-21 03:50 100 3 gusting 5 16.7
2018-May-21 03:45 089 2 gusting 5 16.1
2018-May-21 03:40 092 1 gusting 3 15.6
2018-May-21 03:35 101 0 gusting 2 15.0
2018-May-21 03:30 090 1 gusting 2 14.4
2018-May-21 03:25 088 0 gusting 2 14.4
2018-May-21 03:20 094 14.4
2018-May-21 03:15 099 0 gusting 2 14.4
2018-May-21 03:10 098 0 gusting 2 14.4
2018-May-21 03:05 110 0 gusting 3 14.4
2018-May-21 03:00 115 1 gusting 3 14.4
2018-May-21 02:55 117 1 gusting 3 14.4
2018-May-21 02:50 121 1 gusting 3 14.4
2018-May-21 02:45 121 1 gusting 3 14.4
2018-May-20 17:40 20.0
2018-May-20 17:35 314 20.6
2018-May-20 17:30 329 20.6
2018-May-20 17:25 355 21.1
2018-May-20 17:20 014 0 gusting 1 21.1
2018-May-20 17:15 034 21.7
2018-May-20 17:10 065 22.2
2018-May-20 17:05 085 22.8
2018-May-20 17:00 088 22.8
2018-May-20 16:55 090 1 gusting 3 22.8
2018-May-20 16:50 076 1 gusting 3 23.3
2018-May-20 16:45 082 1 gusting 3 23.3
2018-May-20 16:40 089 0 gusting 2 23.9
2018-May-20 16:35 070 0 gusting 4 24.4
2018-May-20 16:30 086 0 gusting 4 25.0
2018-May-20 16:25 088 25.0
2018-May-20 16:20 088 1 gusting 5 25.0
2018-May-20 16:15 105 3 gusting 5 25.0
2018-May-20 16:10 091 2 gusting 5 25.0
2018-May-20 16:05 064 2 gusting 5 25.0
2018-May-20 16:00 099 1 gusting 4 25.0
2018-May-20 15:55 101 1 gusting 4 26.1
2018-May-20 15:50 056 1 gusting 4 25.0
2018-May-20 15:45 083 0 gusting 3 25.0
2018-May-20 15:40 091 0 gusting 3 25.0
2018-May-20 15:35 093 2 gusting 3 25.0
2018-May-20 15:30 083 1 gusting 4 25.0
2018-May-20 15:25 087 1 gusting 5 25.0
2018-May-20 15:20 095 1 gusting 5 24.4
2018-May-20 15:15 090 0 gusting 4 25.0
2018-May-20 15:10 072 0 gusting 4 25.0
2018-May-20 15:05 008 1 gusting 3 26.1
2018-May-20 15:00 051 0 gusting 4 26.7
2018-May-20 14:55 080 1 gusting 4 26.7
2018-May-20 14:50 101 3 gusting 4 27.2
2018-May-20 14:45 110 1 gusting 4 26.7
2018-May-20 14:40 105 1 gusting 6 26.7
2018-May-20 14:35 068 1 gusting 6 27.2
2018-May-20 14:30 045 0 gusting 5 27.8
2018-May-20 14:25 045 1 gusting 5 27.2
2018-May-20 14:20 065 2 gusting 4 27.8
2018-May-20 14:15 091 1 gusting 4 27.2
2018-May-20 14:10 086 2 gusting 4 27.8
2018-May-20 14:05 071 0 gusting 4 28.3
2018-May-20 14:00 341 27.8
2018-May-20 13:55 329 0 gusting 3 27.8
2018-May-20 13:50 342 1 gusting 5 27.8
2018-May-20 13:45 029 1 gusting 5 27.2
2018-May-20 13:40 049 3 gusting 5 27.2
2018-May-20 13:35 085 1 gusting 3 27.2
2018-May-20 13:30 110 1 gusting 6 26.7
2018-May-20 13:25 093 1 gusting 6 26.7
2018-May-20 13:20 075 1 gusting 4 27.8
2018-May-20 13:15 027 0 gusting 5 27.8
2018-May-20 13:10 342 0 gusting 5 27.8
2018-May-20 13:05 339 1 gusting 4 27.8
2018-May-20 13:00 032 1 gusting 3 26.7